Date String (YYYY-MM-DD hh:mm:ss) UTC,Instrument flags,Ambient pressure (hPa),Sample flow (lpm),Bypass flow (lpm),Sample temperature (°C),Ambient temperature (°C),ASC tube jacket temperature (°C),LED temperature (°C),Box temperature (°C),Sample RH (%),Span deviation,Mass concentration (μg/m³),Mass concentration (μg/m³),Mass concentration (μg/m³)
DateTimeUTC,F1_M11,P_M11,Q1_M11,Q2_M11,T1_M11,T2_M11,T3_M11,T4_M11,T5_M11,U1_M11,ZSPAN_M11,X0_M11,X2_M11,X1_M11
2022-03-15 09:00:00,,0830.4,5.01,0.00,24.0,23.2,00.0,33.1,25.6,08.7,0000.0,0008.62,0002.82,0001.88
2022-03-15 09:01:00,,0830.4,4.98,0.00,24.0,23.1,00.0,33.1,25.6,08.8,0000.0,0008.79,0002.86,0001.89
2022-03-15 09:02:00,,0830.4,5.01,0.00,24.0,23.1,00.0,33.1,25.6,08.8,0000.0,0008.78,0002.91,0001.90
2022-03-15 09:03:00,,0830.4,4.99,0.00,23.9,23.1,00.0,33.1,25.6,08.8,0000.0,0008.36,0002.94,0001.90
2022-03-15 09:04:00,,0830.4,5.01,0.00,23.9,23.1,00.0,33.1,25.6,08.8,0000.0,0007.69,0002.88,0001.90
2022-03-15 09:05:00,,0830.4,4.99,0.00,23.9,23.1,00.0,33.1,25.6,08.8,0000.0,0007.56,0002.90,0001.92
2022-03-15 09:06:00,,0830.4,5.00,0.00,23.9,23.1,00.0,33.1,25.5,08.8,0000.0,0007.23,0002.91,0001.92
2022-03-15 09:07:00,,0830.4,5.01,0.00,23.9,23.1,00.0,33.0,25.5,08.7,0000.0,0007.08,0002.90,0001.94
2022-03-15 09:08:00,,0830.3,4.99,0.00,23.9,23.1,00.0,33.0,25.6,08.7,0000.0,0007.00,0002.91,0001.95
2022-03-15 09:09:00,,0830.3,5.02,0.00,23.9,23.1,00.0,33.0,25.6,08.7,0000.0,0006.98,0002.87,0001.93
2022-03-15 09:10:00,,0830.3,4.99,0.00,23.9,23.1,00.0,33.0,25.5,08.7,0000.0,0006.91,0002.88,0001.91
2022-03-15 09:11:00,,0830.2,5.01,0.00,23.9,23.1,00.0,33.0,25.5,08.8,0000.0,0006.90,0002.92,0001.91
2022-03-15 09:12:00,,0830.2,4.99,0.00,23.9,23.1,00.0,33.0,25.5,08.8,0000.0,0006.73,0002.91,0001.91
2022-03-15 09:13:00,,0830.2,5.01,0.00,23.8,23.1,00.0,33.0,25.5,08.8,0000.0,0006.43,0002.88,0001.91
2022-03-15 09:14:00,,0830.2,4.99,0.00,23.8,23.0,00.0,32.9,25.5,08.8,0000.0,0006.47,0002.82,0001.92
2022-03-15 09:15:00,,0830.2,5.00,0.00,23.8,23.0,00.0,32.9,25.5,08.8,0000.0,0006.54,0002.87,0001.91
2022-03-15 09:16:00,,0830.2,4.99,0.00,23.8,23.0,00.0,32.9,25.5,08.8,0000.0,0005.79,0002.94,0001.90
2022-03-15 09:17:00,,0830.2,5.00,0.00,23.8,23.0,00.0,32.9,25.5,08.9,0000.0,0005.82,0002.93,0001.90
2022-03-15 09:18:00,,0830.2,5.01,0.00,23.8,23.0,00.0,32.9,25.5,08.9,0000.0,0006.12,0002.95,0001.88
2022-03-15 09:19:00,,0830.1,4.99,0.00,23.7,23.0,00.0,32.9,25.4,08.9,0000.0,0007.34,0002.95,0001.86
2022-03-15 09:20:00,,0830.1,5.00,0.00,23.7,22.9,00.0,32.9,25.4,08.9,0000.0,0007.36,0002.97,0001.85
2022-03-15 09:21:00,,0830.1,5.00,0.00,23.7,22.9,00.0,32.8,25.3,08.9,0000.0,0007.29,0002.93,0001.84
2022-03-15 09:22:00,,0830.1,4.99,0.00,23.7,22.8,00.0,32.8,25.3,09.0,0000.0,0007.30,0002.92,0001.82
2022-03-15 09:23:00,,0830.1,5.01,0.00,23.7,22.8,00.0,32.8,25.3,08.9,0000.0,0007.14,0002.85,0001.80
2022-03-15 09:24:00,,0830.1,5.01,0.00,23.6,22.8,00.0,32.8,25.3,08.9,0000.0,0007.09,0002.82,0001.76
2022-03-15 09:25:00,,0830.1,4.98,0.00,23.6,22.8,00.0,32.8,25.3,09.0,0000.0,0006.89,0002.81,0001.74
2022-03-15 09:26:00,,0830.1,5.01,0.00,23.6,22.8,00.0,32.8,25.3,09.0,0000.0,0006.69,0002.81,0001.74
2022-03-15 09:27:00,,0830.0,4.99,0.00,23.6,22.8,00.0,32.7,25.3,09.0,0000.0,0006.25,0002.70,0001.74
2022-03-15 09:28:00,,0830.0,5.01,0.00,23.6,22.8,00.0,32.7,25.3,09.0,0000.0,0006.79,0002.68,0001.72
2022-03-15 09:29:00,,0830.0,4.99,0.00,23.6,22.8,00.0,32.7,25.3,09.0,0000.0,0006.59,0002.65,0001.72
2022-03-15 09:30:00,,0830.1,5.00,0.00,23.6,22.8,00.0,32.7,25.3,09.0,0000.0,0005.38,0002.62,0001.73
2022-03-15 09:31:00,,0830.0,5.01,0.00,23.6,22.8,00.0,32.7,25.3,09.1,0000.0,0006.14,0002.64,0001.73
2022-03-15 09:32:00,,0830.0,4.98,0.00,23.6,22.8,00.0,32.7,25.3,09.1,0000.0,0006.05,0002.62,0001.74
2022-03-15 09:33:00,,0830.0,5.01,0.00,23.6,22.8,00.0,32.6,25.3,09.0,0000.0,0005.87,0002.59,0001.74
2022-03-15 09:34:00,,0830.0,4.99,0.00,23.6,22.8,00.0,32.6,25.3,09.1,0000.0,0005.92,0002.61,0001.74
2022-03-15 09:35:00,,0830.0,5.00,0.00,23.6,22.8,00.0,32.6,25.3,09.1,0000.0,0005.89,0002.61,0001.76
2022-03-15 09:36:00,,0830.0,5.00,0.00,23.6,22.8,00.0,32.6,25.3,09.1,0000.0,0005.82,0002.59,0001.78
2022-03-15 09:37:00,,0830.0,5.01,0.00,23.6,22.8,00.0,32.6,25.2,09.1,0000.0,0005.85,0002.59,0001.79
2022-03-15 09:38:00,,0829.9,4.99,0.00,23.5,22.8,00.0,32.6,25.2,09.1,0000.0,0006.06,0002.63,0001.81
2022-03-15 09:39:00,,0829.9,5.01,0.00,23.5,22.7,00.0,32.6,25.1,09.1,0000.0,0006.00,0002.73,0001.86
2022-03-15 09:40:00,,0829.8,4.99,0.00,23.5,22.7,00.0,32.6,25.1,09.2,0000.0,0006.36,0002.83,0001.90
2022-03-15 09:41:00,,0829.9,5.01,0.00,23.4,22.6,00.0,32.6,25.1,09.2,0000.0,0007.27,0002.93,0001.94
2022-03-15 09:42:00,,0829.8,4.98,0.00,23.4,22.6,00.0,32.5,25.1,09.2,0000.0,0006.83,0003.02,0001.98
2022-03-15 09:43:00,,0829.8,5.00,0.00,23.4,22.6,00.0,32.5,25.1,09.2,0000.0,0007.45,0003.12,0002.02
2022-03-15 09:44:00,,0829.8,5.01,0.00,23.4,22.6,00.0,32.5,25.0,09.3,0000.0,0007.69,0003.14,0002.07
2022-03-15 09:45:00,,0829.8,4.99,0.00,23.4,22.6,00.0,32.5,25.0,09.2,0000.0,0008.58,0003.18,0002.11
2022-03-15 09:46:00,,0829.8,5.01,0.00,23.3,22.5,00.0,32.5,25.0,09.2,0000.0,0008.61,0003.19,0002.13
2022-03-15 09:47:00,,0829.8,4.99,0.00,23.3,22.5,00.0,32.5,25.0,09.2,0000.0,0008.66,0003.22,0002.15
2022-03-15 09:48:00,,0829.7,5.00,0.00,23.3,22.5,00.0,32.4,25.0,09.2,0000.0,0008.69,0003.23,0002.18
2022-03-15 09:49:00,,0829.7,5.00,0.00,23.3,22.5,00.0,32.4,24.9,09.2,0000.0,0008.73,0003.22,0002.18
2022-03-15 09:50:00,,0829.7,5.01,0.00,23.3,22.5,00.0,32.4,24.9,09.2,0000.0,0008.56,0003.19,0002.16
2022-03-15 09:51:00,,0829.7,4.99,0.00,23.2,22.4,00.0,32.4,24.9,09.2,0000.0,0008.46,0003.19,0002.15
2022-03-15 09:52:00,,0829.7,5.01,0.00,23.2,22.4,00.0,32.4,24.9,09.2,0000.0,0008.05,0003.18,0002.13
2022-03-15 09:53:00,,0829.7,4.99,0.00,23.2,22.3,00.0,32.4,24.8,09.2,0000.0,0008.35,0003.17,0002.12
2022-03-15 09:54:00,,0829.7,4.99,0.00,23.2,22.3,00.0,32.3,24.8,09.2,0000.0,0008.48,0003.16,0002.08
2022-03-15 09:55:00,,0829.6,5.00,0.00,23.1,22.3,00.0,32.3,24.8,09.2,0000.0,0008.29,0003.15,0002.04
2022-03-15 09:56:00,,0829.6,5.00,0.00,23.1,22.2,00.0,32.3,24.8,09.2,0000.0,0007.52,0003.12,0002.00
2022-03-15 09:57:00,,0829.6,5.00,0.00,23.1,22.2,00.0,32.3,24.8,09.1,0000.0,0007.48,0003.10,0001.96
2022-03-15 09:58:00,,0829.6,5.00,0.00,23.1,22.3,00.0,32.3,24.8,09.1,0000.0,0007.36,0003.01,0001.92
2022-03-15 09:59:00,,0829.6,4.99,0.00,23.1,22.3,00.0,32.2,24.8,09.1,0000.0,0007.35,0002.91,0001.86
